Tracking 20232 objects as of 21-Jan-2020
HD Live streaming from Space Station
objects crossing your sky now

USA 17

Track USA 17 now!
10-day predictions
USA 17 is classified as:


NORAD ID: 16625
Int'l Code: 1986-014F
Perigee: 403.7 km
Apogee: 1,780.2 km
Inclination: 63.3 °
Period: 106.9 minutes
Semi major axis: 7462 km
RCS: Unknown
Launch date: February 9, 1986
Source: United States (US)
Launch site: AIR FORCE WESTERN TEST RANGE (AFWTR)
aabbcc
Your satellite tracking list
Your tracking list is empty




NASA's NSSDC Master Catalog

Two Line Element Set (TLE):
1 16625U 86014F   20020.90872512 +.00000371 +00000-0 +51734-4 0  9992
2 16625 063.2995 227.2260 0922231 072.9250 297.0614 13.46607847025441
Source of the keplerian elements: AFSPC